This is the latest recevied weather packets stored in our database for station/object SP4IM-13. If no packets are shown the sender has not sent any weather packets the latest 10 day(s).
| Time | Temp. | Humidity | Pressure | Rain* | Wind** | Luminosity | Snow |
|---|---|---|---|---|---|---|---|
| 1777999202 | 18.89° C | 73% | 1005 hPa | - | - | - | - |
| 1777998602 | 19.44° C | 72% | 1005 hPa | - | - | - | - |
| 1777998002 | 19.44° C | 72% | 1005 hPa | - | - | - | - |
| 1777997403 | 19.44° C | 71% | 1005 hPa | - | - | - | - |
| 1777996203 | 20° C | 70% | 1005 hPa | - | - | - | - |
| 1777995602 | 20° C | 69% | 1005 hPa | - | - | - | - |
| 1777994403 | 20.56° C | 69% | 1006 hPa | - | - | - | - |
| 1777993803 | 21.67° C | 63% | 1005 hPa | - | - | - | - |
| 1777993202 | 21.67° C | 59% | 1006 hPa | - | - | - | - |
| 1777992602 | 22.22° C | 59% | 1005 hPa | - | - | - | - |
| 1777992002 | 22.78° C | 59% | 1005 hPa | - | - | - | - |
| 1777991404 | 23.33° C | 58% | 1005 hPa | - | - | - | - |
| 1777990802 | 24.44° C | 55% | 1005 hPa | - | - | - | - |
| 1777989603 | 25.56° C | 48% | 1005 hPa | - | - | - | - |
| 1777989004 | 25.56° C | 45% | 1005 hPa | - | - | - | - |
| 1777988403 | 26.11° C | 45% | 1006 hPa | - | - | - | - |
| 1777987803 | 26.67° C | 46% | 1006 hPa | - | - | - | - |
| 1777987202 | 26.67° C | 43% | 1006 hPa | - | - | - | - |
| 1777986602 | 27.22° C | 41% | 1006 hPa | - | - | - | - |
| 1777986003 | 27.22° C | 41% | 1006 hPa | - | - | - | - |
| 1777985402 | 27.78° C | 40% | 1006 hPa | - | - | - | - |
| 1777984802 | 27.78° C | 39% | 1006 hPa | - | - | - | - |
| 1777984202 | 28.33° C | 39% | 1006 hPa | - | - | - | - |
| 1777983603 | 28.33° C | 39% | 1006 hPa | - | - | - | - |
| 1777983002 | 27.78° C | 39% | 1006 hPa | - | - | - | - |
* Rain since midnight (hover to see other rain measurements)
** Current wind speed in m/s (hover to see current wind gust speed)